South Paris, Maine, United States (04281)
Lat: 44.22N, Lon: 70.51W
Wx Zone: MEZ012
Local Info
Past Weather Observations for Tuesday, May 24, 2016

NOTE: This archive is for the closest National Weather Service station to South Paris. Information may differ from the station used for current weather conditions.

Click here for Long-term Archive

Time Weather Temperature Dewpoint Humidity Pressure Winds Precip Visibility
23:55
Overcast
55°F / 13°C 54°F / 12°C 94% 29.98 in
(1015 mb)
SE 4.6 mph
(SE 7 kph)
- 4SM
23:35
Overcast
55°F / 13°C 54°F / 12°C 94% 29.98 in
(1015 mb)
SSE 3.5 mph
(SSE 6 kph)
- 4SM
22:55
Overcast
55°F / 13°C 54°F / 12°C 94% 29.98 in
(1015 mb)
SSE 3.5 mph
(SSE 6 kph)
- 6SM
22:35
Overcast
55°F / 13°C 54°F / 12°C 94% 29.98 in
(1015 mb)
Calm - 7SM
22:15
Overcast
55°F / 13°C 54°F / 12°C 94% 29.98 in
(1015 mb)
SSE 3.5 mph
(SSE 6 kph)
- 7SM
21:55
Overcast
55°F / 13°C 54°F / 12°C 94% 29.98 in
(1015 mb)
S 3.5 mph
(S 6 kph)
- 9SM
21:35
Overcast
55°F / 13°C 52°F / 11°C 88% 29.98 in
(1015 mb)
S 3.5 mph
(S 6 kph)
- 10SM
21:15
Overcast
55°F / 13°C 54°F / 12°C 94% 29.98 in
(1015 mb)
Calm - 10SM
20:55
Overcast
55°F / 13°C 54°F / 12°C 94% 29.98 in
(1015 mb)
Calm - 8SM
20:35
Overcast
55°F / 13°C 54°F / 12°C 94% 29.98 in
(1015 mb)
S 4.6 mph
(S 7 kph)
- 7SM
20:15
Overcast
57°F / 14°C 54°F / 12°C 88% 29.98 in
(1015 mb)
S 4.6 mph
(S 7 kph)
- 5SM
19:55
Overcast
57°F / 14°C 54°F / 12°C 88% 29.98 in
(1015 mb)
S 5.8 mph
(S 9 kph)
- 7SM
19:35
Overcast
57°F / 14°C 54°F / 12°C 88% 29.98 in
(1015 mb)
SE 3.5 mph
(SE 6 kph)
- 10SM
19:15
Overcast
59°F / 15°C 54°F / 12°C 82% 29.98 in
(1015 mb)
SE 3.5 mph
(SE 6 kph)
- 10SM
18:55
Overcast
59°F / 15°C 55°F / 13°C 88% 29.98 in
(1015 mb)
E 3.5 mph
(E 6 kph)
- 10SM
18:35
Overcast
59°F / 15°C 55°F / 13°C 88% 29.98 in
(1015 mb)
Calm - 10SM
18:15
Overcast
59°F / 15°C 54°F / 12°C 82% 29.98 in
(1015 mb)
SE 4.6 mph
(SE 7 kph)
- 10SM
17:55
Overcast
59°F / 15°C 55°F / 13°C 88% 29.95 in
(1014 mb)
ESE 4.6 mph
(ESE 7 kph)
- 10SM
17:35
Overcast
59°F / 15°C 55°F / 13°C 88% 29.95 in
(1014 mb)
E 4.6 mph
(E 7 kph)
- 10SM
17:15
Overcast
59°F / 15°C 55°F / 13°C 88% 29.98 in
(1015 mb)
E 5.8 mph
(E 9 kph)
- 10SM
16:55
Overcast
61°F / 16°C 55°F / 13°C 83% 29.98 in
(1015 mb)
E 3.5 mph
(E 6 kph)
- 10SM
16:35
Overcast
59°F / 15°C 55°F / 13°C 88% 29.98 in
(1015 mb)
E 3.5 mph
(E 6 kph)
- 5SM
16:15
Overcast
59°F / 15°C 55°F / 13°C 88% 29.98 in
(1015 mb)
E 4.6 mph
(E 7 kph)
- 7SM
15:55
Overcast
61°F / 16°C 55°F / 13°C 83% 29.98 in
(1015 mb)
E 3.5 mph
(E 6 kph)
- 7SM
15:35
Overcast
61°F / 16°C 55°F / 13°C 83% 29.98 in
(1015 mb)
E 3.5 mph
(E 6 kph)
- 10SM
15:15
Overcast
61°F / 16°C 55°F / 13°C 83% 29.98 in
(1015 mb)
ENE 3.5 mph
(ENE 6 kph)
- 5SM
14:55
Overcast
61°F / 16°C 55°F / 13°C 83% 29.98 in
(1015 mb)
ENE 4.6 mph
(ENE 7 kph)
- 9SM
14:35
Overcast
61°F / 16°C 55°F / 13°C 83% 29.98 in
(1015 mb)
E 3.5 mph
(E 6 kph)
- 5SM
14:15
Overcast
59°F / 15°C 55°F / 13°C 88% 29.98 in
(1015 mb)
ESE 3.5 mph
(ESE 6 kph)
- 10SM
13:55
Overcast
59°F / 15°C 55°F / 13°C 88% 29.98 in
(1015 mb)
SSE 5.8 mph
(SSE 9 kph)
- 7SM
13:35
Overcast
59°F / 15°C 55°F / 13°C 88% 29.98 in
(1015 mb)
SE 3.5 mph
(SE 6 kph)
- 7SM
13:15
Overcast
61°F / 16°C 54°F / 12°C 77% 29.98 in
(1015 mb)
SSE 5.8 mph
(SSE 9 kph)
- 10SM
12:55
Overcast
59°F / 15°C 54°F / 12°C 82% 29.98 in
(1015 mb)
SE 3.5 mph
(SE 6 kph)
- 10SM
12:35
Overcast
59°F / 15°C 55°F / 13°C 88% 29.98 in
(1015 mb)
SE 5.8 mph
(SE 9 kph)
- 10SM
12:15
Overcast
57°F / 14°C 55°F / 13°C 94% 29.98 in
(1015 mb)
SE 5.8 mph
(SE 9 kph)
- 8SM
11:55
Overcast
59°F / 15°C 55°F / 13°C 88% 29.98 in
(1015 mb)
ESE 6.9 mph
(ESE 11 kph)
0.04 in
(1.02 mm)
8SM
11:35
Overcast
59°F / 15°C 55°F / 13°C 88% 29.98 in
(1015 mb)
SE 4.6 mph
(SE 7 kph)
0.04 in
(1.02 mm)
10SM
11:15
Overcast
61°F / 16°C 55°F / 13°C 83% 29.98 in
(1015 mb)
SE 4.6 mph
(SE 7 kph)
0.03 in
(0.76 mm)
5SM
10:55
Overcast
61°F / 16°C 54°F / 12°C 77% 29.98 in
(1015 mb)
E 6.9 mph
(E 11 kph)
- 9SM
10:35
Overcast
61°F / 16°C 54°F / 12°C 77% 29.98 in
(1015 mb)
ENE 5.8 mph
(ENE 9 kph)
- 10SM
10:15
Overcast
61°F / 16°C 54°F / 12°C 77% 29.98 in
(1015 mb)
NE 6.9 mph
(NE 11 kph)
- 10SM
09:55
Overcast
61°F / 16°C 54°F / 12°C 77% 29.98 in
(1015 mb)
NE 6.9 mph
(NE 11 kph)
0.04 in
(1.02 mm)
10SM
09:35
Overcast
57°F / 14°C 54°F / 12°C 88% 29.98 in
(1015 mb)
NE 4.6 mph
(NE 7 kph)
0.04 in
(1.02 mm)
10SM
09:15
Overcast
57°F / 14°C 52°F / 11°C 82% 29.98 in
(1015 mb)
NE 4.6 mph
(NE 7 kph)
0.03 in
(0.76 mm)
10SM
08:55
Overcast
57°F / 14°C 52°F / 11°C 82% 29.98 in
(1015 mb)
NE 3.5 mph
(NE 6 kph)
- 10SM
08:35
Overcast
57°F / 14°C 52°F / 11°C 82% 29.98 in
(1015 mb)
E 4.6 mph
(E 7 kph)
- 10SM
08:15
Overcast
57°F / 14°C 52°F / 11°C 82% 29.98 in
(1015 mb)
E 6.9 mph
(E 11 kph)
- 10SM
07:55
Overcast
57°F / 14°C 52°F / 11°C 82% 29.98 in
(1015 mb)
ENE 6.9 mph
(ENE 11 kph)
- 10SM
07:35
Overcast
57°F / 14°C 52°F / 11°C 82% 29.98 in
(1015 mb)
E 8.1 mph
(E 13 kph)
- 10SM
07:15
Overcast
57°F / 14°C 52°F / 11°C 82% 29.98 in
(1015 mb)
E 6.9 mph
(E 11 kph)
- 10SM
06:55
Overcast
57°F / 14°C 52°F / 11°C 82% 29.98 in
(1015 mb)
NE 11.5 mph
(NE 19 kph)
- 10SM
06:35
Overcast
57°F / 14°C 52°F / 11°C 82% 29.98 in
(1015 mb)
NE 11.5 mph
(NE 19 kph)
- 10SM
06:15
Overcast
57°F / 14°C 52°F / 11°C 82% 29.98 in
(1015 mb)
ENE 9.2 mph
(ENE 15 kph)
- 10SM
05:55
Overcast
55°F / 13°C 52°F / 11°C 88% 29.98 in
(1015 mb)
NE 4.6 mph
(NE 7 kph)
- 10SM
05:35
Overcast
55°F / 13°C 52°F / 11°C 88% 29.98 in
(1015 mb)
NNE 3.5 mph
(NNE 6 kph)
- 10SM
05:15
Mostly Cloudy
55°F / 13°C 52°F / 11°C 88% 29.98 in
(1015 mb)
NE 5.8 mph
(NE 9 kph)
- 10SM
04:55
Partly Cloudy
54°F / 12°C 52°F / 11°C 94% 29.98 in
(1015 mb)
ENE 4.6 mph
(ENE 7 kph)
- 10SM
04:35
Partly Cloudy
52°F / 11°C 48°F / 9°C 88% 29.98 in
(1015 mb)
Calm - 10SM
04:15
Partly Cloudy
54°F / 12°C 48°F / 9°C 82% 29.98 in
(1015 mb)
NNE 3.5 mph
(NNE 6 kph)
- 10SM
03:55
Partly Cloudy
54°F / 12°C 48°F / 9°C 82% 29.95 in
(1014 mb)
Calm - 10SM
03:35
Overcast
54°F / 12°C 48°F / 9°C 82% 29.95 in
(1014 mb)
N 4.6 mph
(N 7 kph)
- 10SM
03:15
Overcast
54°F / 12°C 48°F / 9°C 82% 29.95 in
(1014 mb)
N 3.5 mph
(N 6 kph)
- 10SM
02:55
Overcast
54°F / 12°C 48°F / 9°C 82% 29.98 in
(1015 mb)
NNW 3.5 mph
(NNW 6 kph)
- 10SM
02:35
Overcast
54°F / 12°C 48°F / 9°C 82% 29.98 in
(1015 mb)
Calm - 10SM
02:15
Overcast
54°F / 12°C 48°F / 9°C 82% 29.98 in
(1015 mb)
Calm - 10SM
01:55
Overcast
54°F / 12°C 48°F / 9°C 82% 29.98 in
(1015 mb)
Calm - 10SM
01:35
Overcast
54°F / 12°C 48°F / 9°C 82% 29.98 in
(1015 mb)
Calm - 10SM
01:15
Mostly Cloudy
52°F / 11°C 48°F / 9°C 88% 29.98 in
(1015 mb)
Calm - 10SM
00:55
Mostly Cloudy
54°F / 12°C 50°F / 10°C 88% 29.98 in
(1015 mb)
Calm - 10SM
00:35
Mostly Cloudy
55°F / 13°C 48°F / 9°C 77% 29.98 in
(1015 mb)
Calm - 10SM
00:15
Overcast
55°F / 13°C 48°F / 9°C 77% 29.98 in
(1015 mb)
N 4.6 mph
(N 7 kph)
- 10SM
Time Weather Temperature Dewpoint Humidity Pressure Winds Precip Visibility


Weather for websites

WeatherForYou.com, LLC is not responsible for any damages or problems caused by this service. Current weather conditions are obtained from the closest station including government and personal stations which may have varying degrees of accuracy. Weather forecasts are derived from the NOAA NDFD. Like all things, this site belongs to Jesus Christ... He just trusts us to maintain it. If you have any questions or comments email webmaster@weatherforyou.com

Copyright © 2016, WeatherForYou.com LLC. All rights reserved.